Location: Albuquerque Trailhead
(34.7934°N, 106.3736°W)
Time: 09:35:18
(UTC+00:00)

Exosat Rocket - Pass Details

Date: 25 October 2021
Orbit: 759 x 2516 km, 72.3° (Epoch: 08 December)

Event Time Altitude Azimuth Distance (km) Brightness Sun altitude
Rises 11:15:40 0° 195° (SSW) 4,212 7.1 -26.2°
Reaches altitude 10° 11:18:03 10° 195° (SSW) 3,432 6.7 -25.7°
Maximum altitude 11:26:42 87° 108° (ESE) 1,780 5.2 -23.9°
Drops below altitude 10° 11:39:15 10° 20° (NNE) 4,831 7.8 -21.3°
Sets 11:43:14 0° 21° (NNE) 5,999 8.3 -20.5°
